THORAD DELTA 1 DEB, 8563

Orbit data source: Space-Track

THORAD DELTA 1 DEB, 8563 is space debris in SSO originally from a launch on Fri, 15 Nov 1974 UTC launched from the Air Force Western Test Range (AFWTR). Debris objects in space refer to the collection of defunct objects orbiting the Earth. Examples of debris include non-operational satellites, rocket bodies, and fragments generated from explosions, collisions, or faulty payload assembly.

Loading next visibility...
Identifier
8563, 1974-089DA
Orbit
SSO
Country
Flag of USUS
Related business
Manufacturer
Unknown
Mission
Spacecraft
Bus & Motor
Unknown
Mass
Unknown
Launch date (UTC)
1974-11-15 (51 years ago)
Launch vehicle
Unknown
Launch site
Air Force Western Test Range (AFWTR)
Object type
Payload
Rocket body
Debris
Shape & HBR
Unknown shape, 0.1 m
Radar Cross Section
Small (<0.1 m²)

Expand to show TLE details & history
Last TLE update: 1 day ago

TLE from 1 day ago
0 THORAD DELTA 1 DEB
1  8563U 74089DA  26106.22155044  .00000067  00000-0  68590-3 0  9992
2  8563 101.4032 203.2880 0077694 311.2739  76.1959 12.53610805348336
Epoch: 2026-04-16T05:19Z
TLE epoch observation values (Epoch: 2026-04-16T05:19:01.958Z)
Latitude
27.76845°
Longitude
-86.90847°
Altitude
1,438.494 km
Speed
7.151 km/s
True Right ascension
13h 08m 53s
True Declination
27° 38' 21"
Sunlit
Object was in full shadow at epoch
Visualization orbit readout
Latitude
Unknown
Longitude
Unknown
Altitude
Unknown
Speed
Unknown
Apparent Right ascension
Unknown
Apparent Declination
Unknown
Sunlit
N/A
Visualization observer readout
Local Sidereal Time
17:04:29
Azimuth
Unknown
Elevation
Unknown
Doppler factor
Unknown
Orbital elements
Apogee altitude
1,507.746 km
Perigee altitude
1,386.154 km
Semi-major axis
7,825.087 km
Eccentricity
0.00777
Inclination
101.4032°
RAAN
203.288°
Arg. of periapsis
311.2739°
True anomaly
77.06247°
Mean anomaly
76.1959°
Eccentric anomaly
76.62899°
Mean motion
3.13552 °/min
Orbital period
114.81 mins
BSTAR
0.0006859
Loading maneuver chart data...
Computing Atmospheric mass density...

Documentation

Showing up to 5 results
|